| time (UTC) | temp C | wind direction | speed KPH | gust KPH | rain 1hr cm | rain 24hr cm | rain mn cm | humidity % | barometer mb |
| 20260504001510 | 12 | 259 | 1.6 | 12.9 | 0.00 | 0.03 | 0.03 | 59 | 1009.2 |
| 20260504001055 | 12 | 242 | 4.8 | 16.1 | 0.00 | 0.03 | 0.03 | 59 | 1009.2 |
| 20260504000534 | 12 | 210 | 6.4 | 22.5 | 0.00 | 0.03 | 0.03 | 60 | 1009.2 |
| 20260504000140 | 12 | 200 | 3.2 | 12.9 | 0.00 | 0.03 | 0.03 | 63 | 1009.3 |
| 20260503235540 | 12 | 259 | 0.0 | 14.5 | 0.00 | 0.03 | 0.03 | 66 | 1009.3 |
| 20260503235020 | 11 | 252 | 4.8 | 14.5 | 0.00 | 0.03 | 0.03 | 68 | 1009.5 |
| 20260503234604 | 11 | 261 | 1.6 | 6.4 | 0.00 | 0.03 | 0.03 | 70 | 1009.5 |
| 20260503234047 | 11 | 271 | 0.0 | 6.4 | 0.00 | 0.03 | 0.03 | 71 | 1009.6 |
| 20260503233525 | 11 | 270 | 0.0 | 6.4 | 0.00 | 0.03 | 0.03 | 73 | 1009.7 |
| 20260503233007 | 11 | 224 | 0.0 | 6.4 | 0.00 | 0.03 | 0.03 | 75 | 1009.8 |
| 20260503232548 | 11 | 223 | 0.0 | 0.0 | 0.00 | 0.03 | 0.03 | 76 | 1009.8 |
| 20260503232029 | 11 | 223 | 0.0 | 3.2 | 0.00 | 0.03 | 0.03 | 77 | 1009.9 |
| 20260503231508 | 10 | 223 | 0.0 | 3.2 | 0.00 | 0.03 | 0.03 | 79 | 1010.0 |
| 20260503231052 | 10 | 223 | 0.0 | 3.2 | 0.03 | 0.03 | 0.03 | 79 | 1010.0 |
| 20260503230535 | 10 | 223 | 0.0 | 3.2 | 0.03 | 0.03 | 0.03 | 79 | 1010.0 |
| 20260503230116 | 10 | 223 | 0.0 | 0.0 | 0.03 | 0.03 | 0.03 | 80 | 1010.2 |
| 20260503225543 | 10 | 223 | 0.0 | 0.0 | 0.03 | 0.03 | 0.03 | 80 | 1010.1 |
| 20260503225018 | 11 | 223 | 0.0 | 0.0 | 0.03 | 0.03 | 0.03 | 80 | 1010.0 |
| 20260503224601 | 11 | 223 | 0.0 | 0.0 | 0.03 | 0.03 | 0.03 | 80 | 1010.1 |
| 20260503224041 | 11 | 223 | 0.0 | 0.0 | 0.03 | 0.03 | 0.03 | 79 | 1010.0 |
| 20260503223522 | 11 | 223 | 0.0 | 0.0 | 0.03 | 0.03 | 0.03 | 78 | 1010.1 |
| 20260503223001 | 11 | 223 | 0.0 | 0.0 | 0.03 | 0.03 | 0.03 | 77 | 1010.2 |
| 20260503222545 | 11 | 223 | 0.0 | 9.7 | 0.03 | 0.03 | 0.03 | 77 | 1010.3 |
| 20260503222025 | 11 | 223 | 3.2 | 12.9 | 0.03 | 0.03 | 0.03 | 76 | 1010.4 |
| 20260503221505 | 11 | 246 | 3.2 | 11.3 | 0.03 | 0.03 | 0.03 | 76 | 1010.4 |
| 20260503221049 | 11 | 254 | 3.2 | 8.0 | 0.00 | 0.00 | 0.00 | 75 | 1010.4 |
| 20260503220530 | 11 | 250 | 0.0 | 8.0 | 0.00 | 0.00 | 0.00 | 75 | 1010.4 |
| 20260503220113 | 11 | 250 | 0.0 | 12.9 | 0.00 | 0.00 | 0.00 | 74 | 1010.4 |
| 20260503215536 | 11 | 249 | 3.2 | 14.5 | 0.00 | 0.00 | 0.00 | 72 | 1010.3 |
| 20260503215015 | 11 | 270 | 4.8 | 14.5 | 0.00 | 0.00 | 0.00 | 71 | 1010.3 |
| 20260503214601 | 12 | 236 | 6.4 | 14.5 | 0.00 | 0.00 | 0.00 | 70 | 1010.3 |
| 20260503214043 | 12 | 252 | 6.4 | 14.5 | 0.00 | 0.00 | 0.00 | 68 | 1010.2 |
| 20260503213523 | 12 | 248 | 3.2 | 22.5 | 0.00 | 0.00 | 0.00 | 65 | 1010.0 |
| 20260503213111 | 12 | 273 | 9.7 | 22.5 | 0.00 | 0.00 | 0.00 | 63 | 1009.9 |
| 20260503212546 | 13 | 242 | 4.8 | 24.1 | 0.00 | 0.00 | 0.00 | 59 | 1009.8 |
| 20260503212021 | 13 | 254 | 11.3 | 24.1 | 0.00 | 0.00 | 0.00 | 58 | 1009.6 |
| 20260503211621 | 13 | 241 | 9.7 | 20.9 | 0.00 | 0.00 | 0.00 | 58 | 1009.4 |
| 20260503211044 | 13 | 275 | 6.4 | 22.5 | 0.00 | 0.00 | 0.00 | 58 | 1009.3 |
| 20260503210523 | 13 | 251 | 6.4 | 22.5 | 0.00 | 0.00 | 0.00 | 58 | 1009.4 |
| 20260503210108 | 12 | 245 | 4.8 | 14.5 | 0.00 | 0.00 | 0.00 | 59 | 1009.5 |
| 20260503205530 | 12 | 238 | 4.8 | 16.1 | 0.00 | 0.00 | 0.00 | 59 | 1009.7 |
| 20260503205009 | 12 | 222 | 4.8 | 22.5 | 0.00 | 0.00 | 0.00 | 59 | 1009.7 |
| 20260503204554 | 12 | 248 | 11.3 | 22.5 | 0.00 | 0.00 | 0.00 | 58 | 1009.7 |
| 20260503204033 | 12 | 246 | 8.0 | 17.7 | 0.00 | 0.00 | 0.00 | 58 | 1009.7 |
| 20260503203515 | 12 | 158 | 6.4 | 16.1 | 0.00 | 0.00 | 0.00 | 58 | 1009.8 |
| 20260503203113 | 12 | 237 | 3.2 | 16.1 | 0.00 | 0.00 | 0.00 | 58 | 1009.7 |
| 20260503202540 | 12 | 244 | 4.8 | 16.1 | 0.00 | 0.00 | 0.00 | 59 | 1009.8 |
| 20260503202017 | 12 | 235 | 4.8 | 12.9 | 0.00 | 0.00 | 0.00 | 58 | 1009.8 |
| 20260503201602 | 12 | 244 | 4.8 | 14.5 | 0.00 | 0.00 | 0.00 | 59 | 1009.9 |
| 20260503201041 | 12 | 251 | 6.4 | 30.6 | 0.00 | 0.00 | 0.00 | 57 | 1010.0 |
| 20260503200521 | 12 | 246 | 9.7 | 30.6 | 0.00 | 0.00 | 0.00 | 57 | 1010.0 |
| 20260503200105 | 12 | 252 | 4.8 | 12.9 | 0.00 | 0.00 | 0.00 | 57 | 1010.0 |
| 20260503195527 | 13 | 248 | 6.4 | 17.7 | 0.00 | 0.00 | 0.00 | 57 | 1010.0 |
| 20260503195007 | 13 | 229 | 6.4 | 20.9 | 0.00 | 0.00 | 0.00 | 57 | 1010.0 |
| 20260503194554 | 13 | 243 | 4.8 | 20.9 | 0.00 | 0.00 | 0.00 | 57 | 1010.1 |
| 20260503194029 | 13 | 262 | 6.4 | 19.3 | 0.00 | 0.00 | 0.00 | 57 | 1010.1 |
| 20260503193510 | 12 | 231 | 8.0 | 16.1 | 0.00 | 0.00 | 0.00 | 55 | 1010.3 |
| 20260503193054 | 13 | 235 | 8.0 | 16.1 | 0.00 | 0.00 | 0.00 | 55 | 1010.5 |
| 20260503192533 | 13 | 256 | 6.4 | 16.1 | 0.00 | 0.00 | 0.00 | 54 | 1010.5 |
| 20260503192013 | 13 | 241 | 6.4 | 16.1 | 0.00 | 0.00 | 0.00 | 52 | 1010.6 |
| 20260503191604 | 13 | 261 | 6.4 | 14.5 | 0.00 | 0.00 | 0.00 | 53 | 1010.7 |
| 20260503191041 | 13 | 248 | 4.8 | 17.7 | 0.00 | 0.00 | 0.00 | 54 | 1010.7 |
| 20260503190520 | 13 | 185 | 6.4 | 17.7 | 0.00 | 0.00 | 0.00 | 54 | 1010.9 |
| 20260503185521 | 13 | 207 | 4.8 | 16.1 | 0.00 | 0.00 | 0.00 | 54 | 1011.1 |
| 20260503185002 | 12 | 270 | 4.8 | 19.3 | 0.00 | 0.00 | 0.00 | 54 | 1011.1 |
| 20260503184545 | 12 | 250 | 8.0 | 19.3 | 0.00 | 0.00 | 0.00 | 54 | 1011.2 |
| 20260503184025 | 12 | 238 | 6.4 | 17.7 | 0.00 | 0.00 | 0.00 | 54 | 1011.3 |
| 20260503183505 | 12 | 219 | 3.2 | 14.5 | 0.00 | 0.00 | 0.00 | 54 | 1011.4 |
| 20260503183049 | 12 | 240 | 4.8 | 24.1 | 0.00 | 0.00 | 0.00 | 52 | 1011.5 |
| 20260503182529 | 12 | 229 | 6.4 | 24.1 | 0.00 | 0.00 | 0.00 | 51 | 1011.5 |
| 20260503182009 | 12 | 293 | 6.4 | 16.1 | 0.00 | 0.00 | 0.00 | 52 | 1011.7 |
| 20260503181603 | 12 | 269 | 3.2 | 22.5 | 0.00 | 0.00 | 0.00 | 52 | 1011.8 |
| 20260503181034 | 12 | 265 | 8.0 | 22.5 | 0.00 | 0.00 | 0.00 | 51 | 1011.8 |
| 20260503180512 | 12 | 163 | 11.3 | 20.9 | 0.00 | 0.00 | 0.00 | 49 | 1011.8 |
| 20260503180106 | 12 | 230 | 6.4 | 20.9 | 0.00 | 0.00 | 0.00 | 51 | 1011.8 |
| 20260503175515 | 12 | 208 | 8.0 | 24.1 | 0.00 | 0.00 | 0.00 | 50 | 1012.0 |
| 20260503175057 | 12 | 247 | 11.3 | 25.7 | 0.00 | 0.00 | 0.00 | 49 | 1012.1 |
| 20260503174538 | 12 | 184 | 8.0 | 25.7 | 0.00 | 0.00 | 0.00 | 51 | 1012.1 |
| 20260503174020 | 12 | 224 | 4.8 | 22.5 | 0.00 | 0.00 | 0.00 | 54 | 1012.2 |
| 20260503173601 | 12 | 219 | 8.0 | 20.9 | 0.00 | 0.00 | 0.00 | 55 | 1012.4 |
| 20260503173053 | 12 | 216 | 8.0 | 20.9 | 0.00 | 0.00 | 0.00 | 56 | 1012.4 |
| 20260503172521 | 12 | 256 | 3.2 | 17.7 | 0.00 | 0.00 | 0.00 | 58 | 1012.4 |
| 20260503172001 | 11 | 244 | 6.4 | 29.0 | 0.00 | 0.00 | 0.00 | 57 | 1012.5 |
| 20260503171545 | 11 | 254 | 11.3 | 29.0 | 0.00 | 0.00 | 0.00 | 56 | 1012.5 |
| 20260503171025 | 11 | 243 | 8.0 | 16.1 | 0.00 | 0.00 | 0.00 | 54 | 1012.7 |
| 20260503170506 | 11 | 243 | 8.0 | 16.1 | 0.00 | 0.00 | 0.00 | 51 | 1012.7 |
| 20260503150553 | 10 | 304 | 6.4 | 17.7 | 0.00 | 0.00 | 0.00 | 48 | 1014.3 |
| 20260503131101 | 7 | 256 | 4.8 | 12.9 | 0.00 | 0.00 | 0.00 | 65 | 1014.7 |
| 20260503130542 | 7 | 248 | 3.2 | 12.9 | 0.00 | 0.00 | 0.00 | 67 | 1014.6 |
| 20260503120119 | 6 | 240 | 4.8 | 11.3 | 0.00 | 0.00 | 0.00 | 79 | 1014.7 |
| 20260503110532 | 1 | 236 | 0.0 | 0.0 | 0.00 | 0.00 | 0.00 | 83 | 1014.7 |
| 20260503110116 | 1 | 236 | 0.0 | 0.0 | 0.00 | 0.00 | 0.00 | 83 | 1014.7 |
| 20260503100113 | 1 | 236 | 0.0 | 0.0 | 0.00 | 0.00 | 0.00 | 80 | 1014.8 |
| 20260503090107 | 1 | 236 | 0.0 | 0.0 | 0.00 | 0.00 | 0.00 | 75 | 1015.2 |
| 20260503081558 | 1 | 236 | 0.0 | 0.0 | 0.00 | 0.00 | 0.00 | 71 | 1015.5 |
| 20260503081037 | 1 | 236 | 0.0 | 0.0 | 0.00 | 0.00 | 0.00 | 72 | 1015.4 |
| 20260503080519 | 1 | 236 | 0.0 | 0.0 | 0.00 | 0.00 | 0.00 | 72 | 1015.4 |
| 20260503072531 | 3 | 236 | 0.0 | 0.0 | 0.00 | 0.00 | 0.00 | 66 | 1015.4 |
| 20260503072011 | 3 | 236 | 0.0 | 0.0 | 0.00 | 0.00 | 0.00 | 65 | 1015.4 |
| 20260503071603 | 3 | 236 | 0.0 | 3.2 | 0.00 | 0.00 | 0.00 | 65 | 1015.4 |
| 20260503071035 | 3 | 236 | 0.0 | 3.2 | 0.00 | 0.00 | 0.00 | 64 | 1015.4 |
| 20260503070519 | 3 | 236 | 0.0 | 3.2 | 0.00 | 0.00 | 0.00 | 64 | 1015.5 |
| 20260503070105 | 3 | 236 | 0.0 | 3.2 | 0.00 | 0.00 | 0.00 | 64 | 1015.5 |
| 20260503060107 | 4 | 239 | 1.6 | 8.0 | 0.00 | 0.00 | 0.00 | 68 | 1015.6 |
| 20260503055058 | 4 | 239 | 0.0 | 4.8 | 0.00 | 0.00 | 0.00 | 69 | 1015.6 |
| 20260503054538 | 4 | 239 | 1.6 | 6.4 | 0.00 | 0.00 | 0.00 | 69 | 1015.6 |
| 20260503054017 | 4 | 239 | 0.0 | 3.2 | 0.00 | 0.00 | 0.00 | 69 | 1015.6 |
| 20260503053603 | 4 | 239 | 0.0 | 3.2 | 0.00 | 0.00 | 0.00 | 68 | 1015.5 |
| 20260503053044 | 4 | 239 | 0.0 | 6.4 | 0.00 | 0.00 | 0.00 | 67 | 1015.6 |
| 20260503052522 | 4 | 239 | 0.0 | 6.4 | 0.00 | 0.00 | 0.00 | 67 | 1015.7 |
| 20260503052003 | 4 | 239 | 1.6 | 3.2 | 0.00 | 0.00 | 0.00 | 67 | 1015.7 |
| 20260503051546 | 4 | 239 | 0.0 | 3.2 | 0.00 | 0.00 | 0.00 | 67 | 1015.6 |
| 20260503051025 | 4 | 239 | 0.0 | 3.2 | 0.00 | 0.00 | 0.00 | 67 | 1015.6 |
| 20260503050505 | 4 | 239 | 0.0 | 6.4 | 0.00 | 0.00 | 0.00 | 67 | 1015.7 |
| 20260503050050 | 4 | 239 | 0.0 | 6.4 | 0.00 | 0.00 | 0.00 | 67 | 1015.7 |
| 20260503045511 | 4 | 239 | 0.0 | 6.4 | 0.00 | 0.00 | 0.00 | 67 | 1015.8 |
| 20260503045055 | 4 | 238 | 0.0 | 6.4 | 0.00 | 0.00 | 0.00 | 68 | 1015.7 |
| 20260503044535 | 4 | 238 | 0.0 | 6.4 | 0.00 | 0.00 | 0.00 | 68 | 1015.8 |
| 20260503044014 | 4 | 238 | 0.0 | 6.4 | 0.00 | 0.00 | 0.00 | 68 | 1015.9 |
| 20260503043558 | 4 | 238 | 0.0 | 1.6 | 0.00 | 0.00 | 0.00 | 69 | 1015.9 |
| 20260503043039 | 4 | 238 | 0.0 | 9.7 | 0.00 | 0.00 | 0.00 | 69 | 1016.0 |
| 20260503042519 | 4 | 238 | 1.6 | 9.7 | 0.00 | 0.00 | 0.00 | 69 | 1016.1 |
| 20260503042104 | 4 | 240 | 0.0 | 3.2 | 0.00 | 0.00 | 0.00 | 70 | 1016.0 |
| 20260503041543 | 4 | 240 | 0.0 | 6.4 | 0.00 | 0.00 | 0.00 | 70 | 1016.0 |
| 20260503041022 | 4 | 239 | 0.0 | 6.4 | 0.00 | 0.00 | 0.00 | 71 | 1016.0 |
| 20260503040502 | 4 | 239 | 0.0 | 6.4 | 0.00 | 0.00 | 0.00 | 71 | 1016.0 |
| 20260503040047 | 4 | 239 | 0.0 | 6.4 | 0.00 | 0.00 | 0.00 | 71 | 1016.0 |
| 20260503035509 | 4 | 241 | 0.0 | 6.4 | 0.00 | 0.00 | 0.00 | 72 | 1016.0 |
| 20260503035053 | 4 | 241 | 0.0 | 6.4 | 0.00 | 0.00 | 0.00 | 73 | 1016.0 |
| 20260503034533 | 4 | 241 | 0.0 | 3.2 | 0.00 | 0.00 | 0.00 | 73 | 1016.0 |
| 20260503034013 | 4 | 241 | 1.6 | 3.2 | 0.00 | 0.00 | 0.00 | 73 | 1016.1 |
| 20260503033556 | 5 | 241 | 0.0 | 0.0 | 0.00 | 0.00 | 0.00 | 73 | 1016.1 |
| 20260503033052 | 5 | 241 | 0.0 | 1.6 | 0.00 | 0.00 | 0.00 | 72 | 1016.2 |
| 20260503032517 | 5 | 241 | 0.0 | 1.6 | 0.00 | 0.00 | 0.00 | 71 | 1016.1 |
| 20260503032100 | 5 | 241 | 0.0 | 0.0 | 0.00 | 0.00 | 0.00 | 71 | 1016.2 |
| 20260503031541 | 5 | 241 | 0.0 | 3.2 | 0.00 | 0.00 | 0.00 | 71 | 1016.3 |
| 20260503031022 | 5 | 241 | 0.0 | 3.2 | 0.00 | 0.00 | 0.00 | 70 | 1016.2 |
| 20260503030501 | 5 | 241 | 0.0 | 1.6 | 0.00 | 0.00 | 0.00 | 69 | 1016.3 |
| 20260503030027 | 5 | 241 | 0.0 | 1.6 | 0.00 | 0.00 | 0.00 | 69 | 1016.2 |
| 20260503025505 | 5 | 241 | 0.0 | 3.2 | 0.00 | 0.00 | 0.00 | 68 | 1016.3 |
| 20260503025049 | 5 | 241 | 0.0 | 3.2 | 0.00 | 0.00 | 0.00 | 68 | 1016.3 |
| 20260503024529 | 5 | 241 | 0.0 | 1.6 | 0.00 | 0.00 | 0.00 | 68 | 1016.2 |
| 20260503024010 | 5 | 241 | 0.0 | 1.6 | 0.00 | 0.00 | 0.00 | 67 | 1016.2 |
| 20260503023558 | 5 | 241 | 0.0 | 3.2 | 0.00 | 0.00 | 0.00 | 67 | 1016.2 |
| 20260503023044 | 5 | 241 | 0.0 | 3.2 | 0.00 | 0.00 | 0.00 | 67 | 1016.3 |
| 20260503022513 | 6 | 241 | 0.0 | 3.2 | 0.00 | 0.00 | 0.00 | 68 | 1016.4 |
| 20260503022057 | 6 | 241 | 0.0 | 3.2 | 0.00 | 0.00 | 0.00 | 68 | 1016.4 |
| 20260503021538 | 6 | 241 | 0.0 | 3.2 | 0.00 | 0.00 | 0.00 | 67 | 1016.5 |
| 20260503021018 | 6 | 241 | 0.0 | 6.4 | 0.00 | 0.00 | 0.00 | 67 | 1016.5 |
| 20260503020603 | 6 | 241 | 1.6 | 6.4 | 0.00 | 0.00 | 0.00 | 67 | 1016.5 |
| 20260503020042 | 6 | 241 | 0.0 | 6.4 | 0.00 | 0.00 | 0.00 | 67 | 1016.5 |
| 20260503015507 | 6 | 241 | 0.0 | 3.2 | 0.00 | 0.00 | 0.00 | 67 | 1016.5 |
| 20260503015048 | 6 | 241 | 0.0 | 3.2 | 0.00 | 0.00 | 0.00 | 67 | 1016.5 |
| 20260503014527 | 5 | 241 | 0.0 | 3.2 | 0.00 | 0.00 | 0.00 | 67 | 1016.5 |
| 20260503014007 | 5 | 241 | 0.0 | 3.2 | 0.00 | 0.00 | 0.00 | 67 | 1016.5 |
| 20260503013551 | 5 | 241 | 0.0 | 3.2 | 0.00 | 0.00 | 0.00 | 67 | 1016.5 |
| 20260503013032 | 5 | 241 | 0.0 | 3.2 | 0.00 | 0.00 | 0.00 | 67 | 1016.5 |
| 20260503012512 | 5 | 241 | 0.0 | 6.4 | 0.00 | 0.00 | 0.00 | 67 | 1016.4 |
| 20260503012055 | 6 | 241 | 0.0 | 6.4 | 0.00 | 0.00 | 0.00 | 66 | 1016.4 |
| 20260503011549 | 6 | 241 | 0.0 | 3.2 | 0.00 | 0.00 | 0.00 | 66 | 1016.4 |
| 20260503011019 | 6 | 241 | 0.0 | 6.4 | 0.00 | 0.00 | 0.00 | 65 | 1016.4 |
| 20260503010559 | 6 | 241 | 0.0 | 8.0 | 0.00 | 0.00 | 0.00 | 65 | 1016.4 |
| 20260503010029 | 6 | 241 | 3.2 | 8.0 | 0.00 | 0.00 | 0.00 | 64 | 1016.4 |
| 20260503005606 | 6 | 237 | 0.0 | 8.0 | 0.00 | 0.00 | 0.00 | 64 | 1016.5 |
| 20260503005045 | 6 | 239 | 1.6 | 6.4 | 0.00 | 0.00 | 0.00 | 63 | 1016.5 |
| 20260503004524 | 6 | 239 | 0.0 | 6.4 | 0.00 | 0.00 | 0.00 | 62 | 1016.4 |
| 20260503004007 | 6 | 239 | 0.0 | 6.4 | 0.00 | 0.00 | 0.00 | 63 | 1016.4 |
| 20260503003548 | 6 | 239 | 0.0 | 6.4 | 0.00 | 0.00 | 0.00 | 64 | 1016.3 |
| 20260503003028 | 6 | 239 | 0.0 | 6.4 | 0.00 | 0.00 | 0.00 | 64 | 1016.3 |
| 20260503002514 | 6 | 239 | 0.0 | 8.0 | 0.00 | 0.00 | 0.00 | 64 | 1016.3 |
| 20260503002052 | 6 | 239 | 0.0 | 12.9 | 0.00 | 0.00 | 0.00 | 65 | 1016.2 |